Flag for Canada Weather past 2 weeks in Chilliwack, British Columbia, Canada

Now
46 °F

Cool.


Feels Like: 46 °F
Forecast: 49 / 67 °F
Wind: 1 mph from Northwest

Location: Agassiz

Current Time: Apr 21, 2015 at 5:40:05 AM

Latest Report: Apr 21, 2015 at 5:00 AM


Visibility: N/A

Pressure: 29.85 "Hg

Humidity: 94%

Dew point: 45 °F

Location of ChilliwackLocation

Historic Weather in Chilliwack — Graph

°F

Chilliwack temperature yesterday

Maximum temperature yesterday: 73 °F (at 4:00 PM)
Minimum temperature yesterday: 49 °F (at 6:00 AM)
Average temperature yesterday: 61 °F

Past Weeks' High & Low Weather Summary

 TemperatureHumidityPressure
High73 °F (Apr 20, 4:00 PM)99% (Apr 11, 12:00 AM)30.54 "Hg (Apr 11, 12:00 AM)
Low37 °F (Apr 16, 6:00 AM)30% (Apr 18, 2:00 PM)29.69 "Hg (Apr 6, 4:00 AM)
Average51 °F69%30.08 "Hg
* Reported Apr 6 3:00 AM — Apr 21 3:00 AM, Chilliwack, Weather by CustomWeather, © 2015

Note: Actual official high and low records may vary slightly from our data, if they occured in-between our weather recording intervals... More about our weather records

Advertising

Chilliwack weather history for previous 24 hours

 ConditionsComfort  
Time TempWeatherWind HumidityBarometerVisibility
3:00 AM
Tue, Apr 21
48 °FCool.1 mph95%29.85 "HgN/A
2:00 AM47 °FCool.1 mph96%29.85 "HgN/A
1:00 AM47 °FCool.1 mph93%29.85 "HgN/A
12:00 AM51 °FCool.1 mph80%29.84 "HgN/A
11:00 PM
Mon, Apr 20
54 °FCool.2 mph79%29.84 "HgN/A
10:00 PM59 °FCool.3 mph65%29.84 "HgN/A
9:00 PM59 °FCool.1 mph69%29.83 "HgN/A
8:00 PM65 °FMild.1 mph55%29.81 "HgN/A
7:00 PM69 °FMild.5 mph53%29.81 "HgN/A
6:00 PM72 °FMild.6 mph47%29.82 "HgN/A
5:00 PM73 °FMild.5 mph41%29.83 "HgN/A
4:00 PM73 °FMild.6 mph40%29.84 "HgN/A
3:00 PM71 °FMild.6 mph48%29.86 "HgN/A
2:00 PM70 °FMild.5 mph41%29.89 "HgN/A
1:00 PM68 °FMild.3 mph44%29.90 "HgN/A
12:00 PM66 °FMild.5 mph47%29.92 "HgN/A
11:00 AM64 °FMild.3 mph50%29.93 "HgN/A
10:00 AM63 °FMild.1 mph48%29.94 "HgN/A
9:00 AM57 °FRefreshingly cool.14 mph59%29.95 "HgN/A
8:00 AM53 °FCool.7 mph73%29.97 "HgN/A
7:00 AM52 °FCool.12 mph67%29.97 "HgN/A
6:00 AM49 °FCool.3 mph81%29.97 "HgN/A
5:00 AM54 °FCool.12 mph64%29.97 "HgN/A
Weather by CustomWeather, © 2015

See weather overviewHow to use our weather pages